Simultaneous Nadir Overpasses (SNOs) Predictions

Prediction of SNOs between GOES-15 and TERRA Satellite Orbit:

Table of predicted SNOs for the next 14.0 days since TLE Epoch: 12/12/2020
Index Date Time (GOES-15) GOES-15 Lat,Lon TERRA Lat,Lon Distance(km) Time Diff (sec)
1 12/12/2020 07:09:01 -0.17,-128.17 -0.57,-130.00 208.36 80
2 12/14/2020 06:59:29 -0.17,-128.20 0.10,-127.05 131.29 80
3 12/14/2020 19:18:03 0.15,-128.19 1.01,-132.20 455.98 80
4 12/16/2020 06:47:16 -0.18,-128.22 0.71,-124.08 470.56 80
5 12/16/2020 19:05:50 0.16,-128.21 0.39,-129.24 116.87 80
6 12/18/2020 18:56:18 0.17,-128.24 -0.22,-126.28 222.23 80
7 12/19/2020 07:15:02 -0.14,-128.25 -0.81,-131.48 367.10 80
8 12/21/2020 07:02:49 -0.15,-128.27 -0.19,-128.52 28.05 80
9 12/23/2020 06:53:16 -0.16,-128.29 0.44,-125.56 310.87 80
10 12/23/2020 19:11:51 0.13,-128.29 0.67,-130.71 276.20 80
11 12/25/2020 19:02:18 0.13,-128.30 0.04,-127.75 62.02 80
